TimeEDT,TemperatureF,Dew PointF,Humidity,Sea Level PressureIn,VisibilityMPH,Wind Direction,Wind SpeedMPH,Gust SpeedMPH,PrecipitationIn,Events,Conditions,WindDirDegrees,DateUTC
12:54 AM,75.0,66.0,73,29.85,9.0,NNE,8.1,-,N/A,,Clear,20,2013-07-25 04:54:00
1:54 AM,75.0,66.0,73,29.85,9.0,NNE,9.2,-,N/A,,Clear,20,2013-07-25 05:54:00
2:54 AM,73.9,64.9,73,29.85,10.0,NNE,6.9,-,0.00,Rain,Light Rain,20,2013-07-25 06:54:00
3:54 AM,73.0,64.9,76,29.86,6.0,North,6.9,-,0.06,Rain,Light Rain,10,2013-07-25 07:54:00
4:54 AM,71.1,64.0,78,29.84,8.0,NNE,12.7,20.7,0.07,Rain,Light Rain,30,2013-07-25 08:54:00
5:16 AM,71.1,63.0,75,29.86,10.0,NNE,16.1,19.6,0.00,,Overcast,30,2013-07-25 09:16:00
5:54 AM,69.1,60.1,73,29.88,10.0,NNE,8.1,-,0.00,Rain,Light Rain,20,2013-07-25 09:54:00
6:54 AM,68.0,60.1,76,29.88,10.0,NNE,11.5,-,0.00,,Mostly Cloudy,20,2013-07-25 10:54:00
7:54 AM,69.1,60.1,73,29.90,10.0,NNE,11.5,-,N/A,,Clear,20,2013-07-25 11:54:00
8:54 AM,70.0,61.0,73,29.91,10.0,NE,8.1,-,N/A,,Mostly Cloudy,40,2013-07-25 12:54:00
9:54 AM,70.0,61.0,73,29.91,10.0,NNE,11.5,-,0.00,Rain,Light Rain,20,2013-07-25 13:54:00
10:54 AM,72.0,63.0,73,29.91,10.0,NNE,10.4,-,0.00,,Scattered Clouds,30,2013-07-25 14:54:00
11:02 AM,72.0,63.0,73,29.92,10.0,NNE,8.1,-,N/A,,Mostly Cloudy,20,2013-07-25 15:02:00
11:54 AM,72.0,63.0,73,29.94,10.0,North,10.4,-,N/A,,Overcast,10,2013-07-25 15:54:00
12:38 PM,73.0,63.0,71,29.94,10.0,NNE,15.0,-,N/A,,Overcast,20,2013-07-25 16:38:00
12:50 PM,73.4,62.6,69,29.95,10.0,NNE,15.0,-,N/A,,Overcast,30,2013-07-25 16:50:00
12:54 PM,73.9,64.0,71,29.94,10.0,NNE,13.8,21.9,N/A,,Overcast,30,2013-07-25 16:54:00
1:54 PM,75.9,64.9,69,29.93,10.0,NNE,11.5,19.6,N/A,,Mostly Cloudy,30,2013-07-25 17:54:00
2:34 PM,77.0,64.9,66,29.93,10.0,NNE,13.8,-,N/A,,Overcast,20,2013-07-25 18:34:00
2:54 PM,77.0,64.9,66,29.93,10.0,North,9.2,-,N/A,,Overcast,10,2013-07-25 18:54:00
3:54 PM,75.0,64.0,69,29.93,10.0,NNE,12.7,21.9,N/A,,Overcast,20,2013-07-25 19:54:00
4:01 PM,75.0,64.0,69,29.93,10.0,NNE,11.5,-,N/A,,Overcast,30,2013-07-25 20:01:00
4:54 PM,73.9,64.0,71,29.94,10.0,North,12.7,20.7,N/A,,Overcast,10,2013-07-25 20:54:00
5:54 PM,73.9,63.0,68,29.95,10.0,NE,15.0,20.7,N/A,,Overcast,40,2013-07-25 21:54:00
6:54 PM,72.0,62.1,71,29.96,10.0,NNE,13.8,-,N/A,,Overcast,30,2013-07-25 22:54:00
7:54 PM,72.0,62.1,71,29.97,10.0,North,6.9,-,N/A,,Overcast,360,2013-07-25 23:54:00
8:54 PM,71.1,62.1,73,29.98,10.0,North,6.9,-,N/A,,Overcast,10,2013-07-26 00:54:00
9:16 PM,71.1,62.1,73,30.00,10.0,NNE,9.2,-,N/A,,Overcast,30,2013-07-26 01:16:00
9:54 PM,71.1,61.0,70,30.00,10.0,NNE,10.4,-,N/A,,Overcast,30,2013-07-26 01:54:00
10:54 PM,71.1,61.0,70,30.00,10.0,NE,10.4,-,N/A,,Overcast,50,2013-07-26 02:54:00
11:03 PM,70.0,61.0,73,30.00,10.0,NNE,10.4,-,N/A,,Overcast,30,2013-07-26 03:03:00
11:40 PM,70.0,60.1,71,30.00,10.0,NE,11.5,17.3,N/A,,Overcast,40,2013-07-26 03:40:00
11:54 PM,70.0,60.1,71,29.99,10.0,NE,10.4,-,N/A,,Overcast,50,2013-07-26 03:54:00